Terminal Aerodrome Forecast
Issued by NWS

Home | Current Version | Previous Version | Text Only | Print | Product List | Glossary On
Versions: 1 2 3 4 5 6 7 8 9 10 11 12
000
FTUS44 KTSA 300500
TAFMLC
TAF
KMLC 300520Z 3006/0106 VRB03KT P6SM FEW250
     FM301500 18007KT P6SM SCT060
     FM010000 15004KT P6SM SCT250=

USA.gov is the U.S. government's official web portal to all federal, state and local government web resources and services.